Greenville, WI

12:12 AM CST on February 25, 2017 (GMT -0600)
Outagamie County Regional

Weather History for KATW - October, 2013

Change the Weather History Date:

Friday, October 18, 2013

  Actual Average Record
Temperature  
Mean Temperature 42 °F -  
Max Temperature 48 °F 54 °F 80 °F (1950)
Min Temperature 37 °F 37 °F 20 °F (1948)
Degree Days  
Heating Degree Days 22    
Moisture  
Dew Point 38 °F    
Average Humidity 80    
Maximum Humidity 93    
Minimum Humidity 71    
Precipitation  
Precipitation 0.00 in - - ()
Sea Level Pressure  
Sea Level Pressure 29.82 in    
Wind  
Wind Speed 8 mph (WSW)    
Max Wind Speed 16 mph    
Max Gust Speed 25 mph    
Visibility 10 miles    
Events Rain    
Averages and records for this station are not official NWS values.
T = Trace of Precipitation, MM = Missing Value Source: NWS Daily Summary

Daily Weather History Graph

Daily Weather History Graph

Search for Another Location

Airport or City:

Trip Planner

Search our weather history database for the weather conditions in past years. The results will help you decide how hot, cold, wet, or windy it might be!

Date:

Astronomy

Oct. 18, 2013 Rise Set
Actual Time 7:13 AM CDT 6:04 PM CDT
Civil Twilight 6:43 AM CDT 6:33 PM CDT
Nautical Twilight 6:10 AM CDT 7:07 PM CDT
Astronomical Twilight 5:36 AM CDT 7:40 PM CDT
Moon 5:53 PM CDT (10/18) 6:48 AM CDT (10/18)
Length of Visible Light 11h 50m
Length of Day
10h 51m
Full, 100% of the Moon is Illuminated
Oct 18
Full
Oct 18
Full
Oct 26
Last Quarter
Nov 3
New
Nov 9
First Quarter

Hourly Weather History & Observations

Time (CDT) Temp. Windchill Dew Point Humidity Pressure Visibility Wind Dir Wind Speed Gust Speed Precip Events Conditions
12:15 AM 44.6 °F 40.2 °F 35.6 °F 71% 29.79 in 10.0 mi WSW 8.1 mph - N/A   Scattered Clouds
12:35 AM 42.8 °F 38.0 °F 35.6 °F 76% 29.79 in 10.0 mi WSW 8.1 mph - N/A   Scattered Clouds
12:55 AM 42.8 °F 39.3 °F 35.6 °F 76% 29.79 in 10.0 mi WSW 5.8 mph - N/A   Clear
1:15 AM 42.8 °F 38.6 °F 35.6 °F 76% 29.79 in 10.0 mi WSW 6.9 mph - N/A   Scattered Clouds
1:35 AM 41.0 °F 36.4 °F 35.6 °F 81% 29.79 in 10.0 mi WSW 6.9 mph - N/A   Scattered Clouds
1:55 AM 44.6 °F 39.7 °F 35.6 °F 71% 29.79 in 10.0 mi WSW 9.2 mph - N/A   Overcast
2:15 AM 44.6 °F 40.2 °F 35.6 °F 71% 29.79 in 10.0 mi WSW 8.1 mph - N/A   Overcast
2:35 AM 44.6 °F 40.2 °F 35.6 °F 71% 29.78 in 10.0 mi WSW 8.1 mph - N/A   Overcast
2:55 AM 44.6 °F 40.7 °F 35.6 °F 71% 29.78 in 10.0 mi WSW 6.9 mph - N/A   Overcast
3:15 AM 44.6 °F 40.2 °F 35.6 °F 71% 29.78 in 10.0 mi WSW 8.1 mph - N/A   Overcast
3:35 AM 44.6 °F 40.7 °F 37.4 °F 76% 29.77 in 10.0 mi SW 6.9 mph - N/A   Overcast
3:55 AM 44.6 °F 41.4 °F 37.4 °F 76% 29.77 in 10.0 mi SSW 5.8 mph - N/A   Overcast
4:15 AM 42.8 °F 39.3 °F 37.4 °F 81% 29.77 in 10.0 mi SW 5.8 mph - N/A   Overcast
4:35 AM 44.6 °F 40.7 °F 35.6 °F 71% 29.77 in 10.0 mi WSW 6.9 mph - N/A   Overcast
4:55 AM 44.6 °F 40.7 °F 35.6 °F 71% 29.77 in 10.0 mi WSW 6.9 mph - N/A   Overcast
5:20 AM 44.6 °F 41.4 °F 37.4 °F 76% 29.77 in 10.0 mi SW 5.8 mph - N/A   Overcast
5:45 AM 44.6 °F 40.7 °F 37.4 °F 76% 29.77 in 10.0 mi WSW 6.9 mph - N/A   Overcast
6:45 AM 44.6 °F 40.2 °F 39.2 °F 81% 29.77 in 10.0 mi WSW 8.1 mph - N/A   Overcast
7:45 AM 42.8 °F 37.5 °F 39.2 °F 87% 29.79 in 10.0 mi WSW 9.2 mph - N/A   Mostly Cloudy
8:45 AM 44.6 °F 39.7 °F 41.0 °F 87% 29.80 in 10.0 mi SW 9.2 mph - N/A   Mostly Cloudy
9:45 AM 46.4 °F 41.1 °F 42.8 °F 87% 29.81 in 10.0 mi WSW 11.5 mph 17.3 mph N/A   Overcast
10:45 AM 48.2 °F - 42.8 °F 82% 29.82 in 10.0 mi WSW 15.0 mph - N/A   Mostly Cloudy
11:45 AM 48.2 °F - 42.8 °F 82% 29.82 in 10.0 mi SW 12.7 mph - N/A   Overcast
12:10 PM 46.4 °F 40.1 °F 42.8 °F 87% 29.82 in 5.0 mi WSW 15.0 mph 25.3 mph N/A Rain Light Rain
12:45 PM 46.4 °F 40.1 °F 44.6 °F 93% 29.82 in 10.0 mi WSW 15.0 mph - N/A   Overcast
2:45 PM 46.4 °F 39.8 °F 41.0 °F 81% 29.83 in 10.0 mi West 16.1 mph 23.0 mph N/A   Overcast
3:45 PM 46.4 °F 40.4 °F 39.2 °F 76% 29.84 in 10.0 mi West 13.8 mph 18.4 mph N/A   Overcast
4:45 PM 46.4 °F 40.7 °F 39.2 °F 76% 29.84 in 10.0 mi WNW 12.7 mph 23.0 mph N/A   Overcast
5:45 PM 44.6 °F 39.7 °F 39.2 °F 81% 29.86 in 10.0 mi WNW 9.2 mph 17.3 mph N/A   Overcast
6:45 PM 44.6 °F 39.2 °F 37.4 °F 76% 29.88 in 10.0 mi WNW 10.4 mph 17.3 mph N/A   Mostly Cloudy
7:45 PM 42.8 °F 38.0 °F 37.4 °F 81% 29.90 in 10.0 mi West 8.1 mph - N/A   Mostly Cloudy
8:45 PM 42.8 °F 38.6 °F 37.4 °F 81% 29.90 in 10.0 mi WNW 6.9 mph - N/A   Mostly Cloudy
9:45 PM 39.2 °F 35.0 °F 37.4 °F 93% 29.90 in 10.0 mi West 5.8 mph - N/A   Mostly Cloudy
10:45 PM 37.4 °F 32.8 °F 35.6 °F 93% 29.90 in 10.0 mi West 5.8 mph - N/A   Scattered Clouds
10:55 PM 37.4 °F 32.8 °F 35.6 °F 93% 29.89 in 10.0 mi West 5.8 mph - N/A   Clear
11:15 PM 37.4 °F 32.8 °F 35.6 °F 93% 29.89 in 10.0 mi West 5.8 mph - N/A   Clear
11:35 PM 37.4 °F 32.8 °F 35.6 °F 93% 29.89 in 10.0 mi West 5.8 mph - N/A   Clear
11:55 PM 37.4 °F 32.8 °F 35.6 °F 93% 29.88 in 10.0 mi West 5.8 mph - N/A   Clear